Location: Olmeneta
(45.2333°N, 10.0167°E)
Time: 16:44:53
(UTC+00:00)

Meteor 1-23 Rocket - Pass Details

Date: 03 March 2021
Orbit: 837 x 888 km, 81.3° (Epoch: 11 April)

Event Time Altitude Azimuth Distance (km) Brightness Sun altitude
Rises 19:22:14 0° 351° (N) 3,405 7.7 -23.9°
Reaches altitude 10° 19:24:40 10° 354° (N) 2,470 6.9 -24.3°
Maximum altitude 19:30:14 67° 77° (ENE) 918 4.1 -25.2°
Enters shadow 19:30:21 67° 86° (E) 920 4.1 -25.3°
